Location: Newark
(48.5667°N, 7.8167°E)
Time: 07:11:23
(UTC+00:00)

JY1SAT - Pass Details

Date: 31 July 2021
Orbit: 568 x 591 km, 97.7° (Epoch: 26 September)

Event Time Altitude Azimuth Distance (km) Brightness Sun altitude
Exits shadow 19:42:59 - 110° (ESE) 2,229 ? -5.8°
Reaches altitude 10° 19:44:04 10° 100° (E) 1,919 ? -5.9°
Maximum altitude 19:46:41 16° 61° (ENE) 1,549 ? -6.3°
Drops below altitude 10° 19:49:18 10° 22° (NNE) 1,933 ? -6.6°
Sets 19:52:08 0° 1° (N) 2,841 ? -7.0°
